Location: Gorze? G�rny
(49.8500°N, 19.5000°E)
Time: 09:05:53
(UTC+00:00)

Cosmos 1674 Rocket - Pass Details

Date: 03 October 2021
Orbit: 601 x 631 km, 82.5° (Epoch: 15 October)

Event Time Altitude Azimuth Distance (km) Brightness Sun altitude
Rises 17:30:23 0° 333° (NNW) 2,870 7.5 -12.8°
Reaches altitude 10° 17:33:40 10° 306° (NW) 1,957 7.2 -13.3°
Maximum altitude 17:35:41 13° 278° (W) 1,754 7.2 -13.7°
Drops below altitude 10° 17:37:40 10° 250° (WSW) 1,947 7.1 -14.0°
Sets 17:40:56 0° 223° (SW) 2,844 7.4 -14.5°
